This demonstration page uses our WeatherBlox Daily Observations layout. Learn more.

Left ArrowRight Arrow

40.92945, -100.16068

Hourly Observations for November 25, 2018

Temp ( °F °C ) Dew Point ( °F °C ) Humidity (%) Winds ( mph kmh ) Pressure ( in mb ) Visibility ( mi km ) Precip ( " mm )
12:15 am 00:15 Windy with Snow Likely 32 0.1 30 -1 92 92 NNE 23 37 29.88 1012 3 4.82802 0 0
12:35 am 00:35 Cloudy with Light Snow 31 -0.4 28 -2 89 89 NNE 18 30 29.91 1013 1.25 2.011675 0 0
12:55 am 00:55 Cloudy with Snow 30 -1 27 -2.6 89 89 NNE 23 37 29.91 1013 0.75 1.207005 0 0
1:15 am 01:15 Windy with Snow Likely 29 -1.5 27 -3 90 90 NNE 22 35 29.94 1014 0.75 1.207005 0 0
1:35 am 01:35 Cloudy with Snow 29 -1.8 26 -3.4 89 89 NNE 21 33 29.94 1014 0.75 1.207005 0 0
1:55 am 01:55 Cloudy with Snow 28 -2 26 -3.4 90 90 N 18 30 29.97 1015 0.75 1.207005 0 0
2:15 am 02:15 Cloudy with Snow 28 -2 26 -3.4 90 90 N 20 31 29.97 1015 1 1.60934 0 0
2:35 am 02:35 Cloudy with Snow 28 -2.5 25 -4 90 90 N 29 46 29.97 1015 1 1.60934 0 0
2:55 am 02:55 Windy with Snow Likely 28 -2.5 24 -4.2 88 88 N 26 43 30 1016 1 1.60934 0 0
3:15 am 03:15 Windy with Snow Likely 27 -2.7 24 -4.4 88 88 N 26 43 30 1016 1 1.60934 0 0
3:35 am 03:35 Windy with Snow Likely 27 -2.8 24 -4.5 88 88 N 26 43 30 1016 1 1.60934 0 0
3:55 am 03:55 Windy with Snow Likely 27 -2.7 24 -4.6 87 87 N 21 33 30.03 1017 1.75 2.816345 0 0
4:15 am 04:15 Windy with Snow Likely 26 -3.2 23 -5.2 86 86 N 26 43 30.06 1018 1.25 2.011675 0 0
4:35 am 04:35 Cloudy with Mist and Fog 26 -3.1 22 -5.3 85 85 N 24 39 30.09 1019 5 8.0467 0 0
4:55 am 04:55 Windy with Snow Likely 26 -3.1 23 -5.2 86 86 N 23 37 30.09 1019 1.75 2.816345 0 0
5:15 am 05:15 Cloudy 26 -3.2 22 -5.3 86 86 N 29 46 30.12 1020 N/A 0 0
5:35 am 05:35 Cloudy 25 -3.8 21 -6.1 84 84 N 31 50 30.12 1020 N/A 0 0
5:55 am 05:55 Cloudy 25 -4 21 -6.3 84 84 N 29 46 30.15 1021 N/A 0 0
6:15 am 06:15 Cloudy 25 -4 21 -6.1 86 86 N 23 37 30.15 1021 N/A 0 0
6:35 am 06:35 Cloudy 25 -4 21 -6 86 86 N 30 48 30.15 1021 N/A 0 0
6:55 am 06:55 Cloudy 25 -4 21 -6 86 86 N 26 43 30.18 1022 N/A 0 0
7:15 am 07:15 Cloudy 25 -4 21 -6 86 86 N 28 44 30.18 1022 N/A 0 0
7:35 am 07:35 Cloudy 25 -4 21 -6 86 86 N 33 54 30.18 1022 N/A 0 0
7:55 am 07:55 Cloudy 25 -3.8 21 -6 85 85 N 31 50 30.18 1022 N/A 0 0
8:15 am 08:15 Cloudy 25 -3.7 21 -6 84 84 N 26 43 30.18 1022 N/A 0 0
8:35 am 08:35 Cloudy 26 -3.5 21 -6 83 83 N 31 50 30.18 1022 N/A 0 0
8:55 am 08:55 Cloudy 26 -3.5 22 -5.8 84 84 N 29 46 30.18 1022 N/A 0 0
9:15 am 09:15 Cloudy 26 -3.2 22 -5.6 84 84 N 26 43 30.21 1023 N/A 0 0
9:35 am 09:35 Cloudy 26 -3.2 22 -5.5 84 84 N 28 44 30.21 1023 N/A 0 0
9:55 am 09:55 Cloudy 26 -3.1 22 -5.6 83 83 N 25 41 30.21 1023 N/A 0 0
10:15 am 10:15 Cloudy 26 -3.1 22 -5.6 83 83 N 22 35 30.24 1024 N/A 0 0
10:35 am 10:35 Cloudy 27 -3 22 -5.6 82 82 N 23 37 30.24 1024 N/A 0 0
10:55 am 10:55 Cloudy 27 -2.9 22 -5.6 82 82 N 23 37 30.24 1024 N/A 0 0
11:15 am 11:15 Cloudy 28 -2.5 22 -5.5 80 80 N 23 37 30.24 1024 10 16.0934 0 0
11:35 am 11:35 Cloudy 28 -2.5 22 -5.5 80 80 N 23 37 30.24 1024 10 16.0934 0 0
11:55 am 11:55 Cloudy 28 -2.5 22 -5.7 79 79 N 25 41 30.24 1024 10 16.0934 0 0
12:15 pm 12:15 Cloudy 28 -2.5 22 -5.6 80 80 N 18 30 30.24 1024 10 16.0934 0 0
12:35 pm 12:35 Cloudy 28 -2.5 22 -5.5 80 80 N 20 31 30.24 1024 10 16.0934 0 0
12:55 pm 12:55 Cloudy 28 -2.3 22 -5.4 80 80 N 18 30 30.24 1024 10 16.0934 0 0
1:15 pm 13:15 Cloudy 28 -2 22 -5.3 78 78 N 22 35 30.24 1024 10 16.0934 0 0
1:35 pm 13:35 Cloudy 29 -1.8 23 -5.2 78 78 N 24 39 30.24 1024 10 16.0934 0 0
1:55 pm 13:55 Cloudy 29 -1.8 22 -5.5 76 76 N 29 46 30.24 1024 10 16.0934 0 0
2:15 pm 14:15 Cloudy 28 -2 22 -5.5 77 77 N 23 37 30.24 1024 10 16.0934 0 0
2:35 pm 14:35 Cloudy 28 -2 22 -5.5 77 77 NNW 22 35 30.24 1024 10 16.0934 0 0
2:55 pm 14:55 Cloudy 28 -2 22 -5.7 76 76 N 22 35 30.24 1024 10 16.0934 0 0
3:15 pm 15:15 Cloudy 28 -2 22 -5.7 76 76 NNW 25 41 30.24 1024 10 16.0934 0 0
3:35 pm 15:35 Cloudy 28 -2.3 22 -5.8 77 77 NNW 21 33 30.27 1025 10 16.0934 0 0
3:55 pm 15:55 Cloudy 28 -2 22 -5.5 77 77 NNW 23 37 30.27 1025 10 16.0934 0 0
4:15 pm 16:15 Cloudy 28 -2 22 -5.3 78 78 NNW 18 30 30.27 1025 10 16.0934 0 0
4:35 pm 16:35 Cloudy 29 -1.8 23 -5.1 78 78 NNW 17 28 30.27 1025 10 16.0934 0 0
4:55 pm 16:55 Cloudy 29 -1.7 23 -5 78 78 NNW 16 26 30.27 1025 10 16.0934 0 0
5:15 pm 17:15 Cloudy 29 -1.7 23 -4.8 80 80 NNW 20 31 30.27 1025 10 16.0934 0 0
5:35 pm 17:35 Cloudy 29 -1.7 23 -4.8 80 80 NNW 18 30 30.27 1025 10 16.0934 0 0
5:55 pm 17:55 Cloudy 29 -1.7 24 -4.7 80 80 N 16 26 30.27 1025 10 16.0934 0 0
6:15 pm 18:15 Cloudy 29 -1.8 23 -4.8 80 80 NNW 17 28 30.3 1026 10 16.0934 0 0
6:35 pm 18:35 Cloudy 29 -1.7 24 -4.6 81 81 NNW 14 22 30.3 1026 10 16.0934 0 0
6:55 pm 18:55 Cloudy 29 -1.7 24 -4.5 81 81 NNW 16 26 30.3 1026 10 16.0934 0 0
7:15 pm 19:15 Cloudy 29 -1.6 24 -4.6 80 80 NNW 18 30 30.3 1026 10 16.0934 0 0
7:35 pm 19:35 Cloudy 29 -1.5 24 -4.6 80 80 N 16 26 30.3 1026 10 16.0934 0 0
7:55 pm 19:55 Cloudy 29 -1.5 24 -4.6 80 80 N 15 24 30.3 1026 10 16.0934 0 0
8:15 pm 20:15 Cloudy 29 -1.5 24 -4.5 80 80 NNW 16 26 30.3 1026 10 16.0934 0 0
8:35 pm 20:35 Cloudy 29 -1.5 24 -4.6 80 80 N 16 26 30.3 1026 10 16.0934 0 0
8:55 pm 20:55 Cloudy 29 -1.5 24 -4.6 80 80 NNW 15 24 30.3 1026 10 16.0934 0 0
9:15 pm 21:15 Cloudy 29 -1.5 24 -4.7 79 79 N 18 30 30.3 1026 10 16.0934 0 0
9:35 pm 21:35 Cloudy 29 -1.5 24 -4.5 80 80 NNW 9 15 30.33 1027 10 16.0934 0 0
9:55 pm 21:55 Cloudy 29 -1.5 24 -4.4 81 81 NNW 16 26 30.33 1027 10 16.0934 0 0
10:15 pm 22:15 Cloudy 29 -1.5 24 -4.2 82 82 NNW 13 20 30.33 1027 10 16.0934 0 0
10:35 pm 22:35 Cloudy 29 -1.5 24 -4.2 82 82 NNW 9 15 30.33 1027 10 16.0934 0 0
10:55 pm 22:55 Cloudy 29 -1.5 24 -4.2 82 82 NNW 13 20 30.33 1027 10 16.0934 0 0
11:15 pm 23:15 Cloudy 29 -1.6 24 -4.2 83 83 NNW 12 19 30.33 1027 10 16.0934 0 0
11:35 pm 23:35 Cloudy 29 -1.5 24 -4.3 81 81 NW 9 15 30.33 1027 10 16.0934 0 0
11:55 pm 23:55 Cloudy 29 -1.5 25 -4 83 83 NNW 6 9 30.33 1027 10 16.0934 0 0

Powered by AerisWeather